Location: Newark
(40.3700°N, 15.2500°E)
Time: 00:52:14
(UTC+00:00)

N. Korean satellite - Visible Passes

Search period start: 15 November 2019 00:00
Search period end: 25 November 2019 00:00
Orbit: 456 x 506 km, 97.2° (Epoch: 14 November)

Date Brightness Start Highest point End Pass type
(mag) Time Alt. Az. Time Alt. Az. Time Alt. Az.
15 Nov 7.1 04:44:39 10° NNE 04:48:22 67° E 04:52:01 10° S visible
15 Nov 9.5 16:53:30 10° SW 16:56:17 21° W 16:59:06 10° NW visible
16 Nov 8.7 04:19:36 10° NNE 04:22:55 30° E 04:26:12 10° SSE visible
16 Nov 8.0 16:27:20 10° S 16:30:47 44° W 16:34:19 10° NNW visible
17 Nov 9.9 03:55:11 10° NE 03:57:23 15° E 03:59:35 10° SE visible
17 Nov 6.6 16:01:47 10° SSE 16:05:23 82° ENE 16:09:04 10° N visible
18 Nov 6.5 05:01:54 10° N 05:05:35 70° WNW 05:09:13 10° SSW visible
18 Nov 10.1 17:11:54 10° WSW 17:13:38 13° W 17:15:23 10° WNW visible
19 Nov 7.6 04:36:35 10° NNE 04:40:13 51° E 04:43:46 10° S visible
19 Nov 9.1 16:44:58 10° SSW 16:48:03 26° W 16:51:12 10° NW visible
20 Nov 9.2 04:11:39 10° NE 04:14:44 24° E 04:17:44 10° SSE visible
20 Nov 7.4 16:19:01 10° S 16:22:36 57° W 16:26:15 10° NNW visible
21 Nov 10.1 03:47:42 10° ENE 03:49:09 12° E 03:50:35 10° ESE visible
21 Nov 7.0 05:19:15 10° N 05:22:44 40° WNW 05:26:10 10° SW visible
22 Nov 6.6 04:53:42 10° NNE 04:57:25 90° WNW 05:01:02 10° SSW visible
22 Nov 9.9 17:03:00 10° SW 17:05:22 16° W 17:07:46 10° NW visible
23 Nov 8.1 04:28:30 10° NNE 04:31:59 40° E 04:35:24 10° S visible
23 Nov 8.6 16:36:30 10° SSW 16:39:49 33° W 16:43:13 10° NNW visible
24 Nov 9.5 04:03:46 10° NE 04:06:28 19° E 04:09:07 10° SE visible
24 Nov 6.9 16:10:44 10° S 16:14:22 74° W 16:18:05 10° NNW visible
